Date,TemperatureHighF,TemperatureAvgF,TemperatureLowF,DewpointHighF,DewpointAvgF,DewpointLowF,HumidityHigh,HumidityAvg,HumidityLow,PressureMaxIn,PressureMinIn,WindSpeedMaxMPH,WindSpeedAvgMPH,GustSpeedMaxMPH,PrecipitationSumIn
2013-7-1,101.1,87.5,75.2,62.8,55.5,51.6,46,35,22,29.75,29.68,11,3,14,0.00
2013-7-2,99.4,86.3,74.0,61.7,56.1,50.8,49,37,24,29.82,29.71,11,3,17,0.00
2013-7-3,101.0,85.9,73.9,61.2,58.0,55.4,54,41,25,29.78,29.64,12,3,14,0.00
2013-7-4,100.0,87.3,73.3,66.9,60.6,56.5,58,42,25,29.67,29.57,11,3,16,0.00
2013-7-5,100.8,89.6,75.4,69.3,57.8,43.2,62,38,17,29.61,29.55,13,4,18,0.00
2013-7-6,98.2,81.9,70.2,55.0,50.7,46.5,48,36,19,29.65,29.60,14,4,18,0.00
2013-7-7,102.8,85.8,70.7,51.2,46.2,37.5,41,28,11,29.72,29.65,16,4,17,0.00
2013-7-8,102.8,86.0,71.0,46.3,39.6,32.2,34,21,10,29.85,29.72,11,4,19,0.00
2013-7-9,101.3,87.4,71.6,45.8,36.6,31.0,29,18,9,29.91,29.83,16,3,18,0.00
2013-7-10,101.0,86.3,72.1,51.5,43.0,35.2,32,23,11,29.86,29.75,12,3,17,0.00
2013-7-11,96.0,84.5,73.0,56.6,46.2,32.5,43,28,14,29.79,29.71,14,4,19,0.00
2013-7-12,93.6,79.3,66.6,51.7,43.3,39.0,43,29,16,29.80,29.75,14,3,17,0.00
2013-7-13,97.9,80.9,65.4,47.8,42.5,37.1,42,28,14,29.85,29.79,14,3,19,0.00
2013-7-14,98.7,82.5,69.4,47.1,42.1,37.4,34,25,15,29.86,29.76,12,3,17,0.00
2013-7-15,96.0,81.9,69.8,52.7,45.1,41.7,39,29,16,29.77,29.66,12,4,21,0.00
2013-7-16,91.8,78.2,66.1,50.3,44.5,40.5,44,32,19,29.88,29.70,13,4,17,0.00
2013-7-17,91.7,78.4,65.1,51.7,45.2,40.9,43,32,22,29.94,29.88,13,4,16,0.00
2013-7-18,95.9,81.1,66.7,51.7,47.2,42.2,48,32,20,29.93,29.81,11,3,14,0.00
2013-7-19,99.0,83.0,69.3,53.3,49.0,45.8,44,32,18,29.83,29.70,12,3,15,0.00
2013-7-20,100.8,84.9,73.5,55.7,51.9,48.1,49,34,18,29.73,29.61,11,3,15,0.00
2013-7-21,102.1,87.5,75.1,57.1,51.2,45.8,46,31,18,29.74,29.63,15,3,17,0.00
2013-7-22,94.5,82.5,73.9,65.6,55.1,48.8,74,41,25,29.82,29.71,11,3,18,0.01
2013-7-23,94.8,80.4,72.5,62.7,59.0,47.0,70,50,25,29.89,29.80,10,3,16,0.01
2013-7-24,97.6,84.4,70.8,58.5,55.8,53.3,59,40,24,29.86,29.76,10,3,17,0.00
2013-7-25,97.1,85.3,74.1,61.3,57.6,54.8,52,40,28,29.87,29.79,8,2,15,0.00
2013-7-26,100.1,86.4,74.5,61.6,55.5,49.0,56,38,19,29.93,29.85,12,4,17,0.00
2013-7-27,96.4,84.6,73.1,59.4,50.8,44.9,48,33,18,29.86,29.73,14,4,18,0.00
2013-7-28,96.6,83.1,72.7,55.1,48.7,44.5,44,32,18,29.73,29.66,14,3,17,0.00
2013-7-29,94.9,83.8,69.3,57.9,49.8,45.4,47,32,21,29.86,29.76,13,4,17,0.00
2013-7-30,93.8,80.1,68.7,54.6,49.0,46.0,48,35,20,29.94,29.86,9,3,15,0.00
2013-7-31,94.1,79.6,68.6,57.2,49.5,42.4,52,37,18,29.93,29.84,16,3,17,0.00